Location: Montague
(41.3030°N, 74.7940°W)
Time: 07:06:32
(UTC-04:00)

Daily predictions for brighter satellites

Satellite Brightness Start Highest point End
(mag) Time Altitude Azimuth Time Altitude Azimuth Time Altitude Azimuth
ATLAS CENTAUR R/B 4.1 20:39:57 10° SSW 20:45:39 57° ESE 21:02:13 10° NE
SL-16 R/B 2.8 20:42:23 10° N 20:47:46 42° ENE 20:53:07 10° SE
ATLAS 3B R/B 3.1 20:42:39 10° SW 20:49:52 76° NW 20:56:49 10° NNE
Envisat 4.1 20:45:10 10° S 20:50:03 47° W 20:54:58 10° NNW
Cosmos 1378 Rocket 3.5 20:49:16 10° S 20:53:34 78° E 20:57:53 10° N
COSMOS 2487 4.0 20:51:13 10° SW 20:54:33 42° WNW 20:57:55 10° N
Cosmos 1674 Rocket 4.3 20:51:26 10° SSW 20:55:50 59° W 21:00:16 10° N
Cosmos 1975 Rocket 3.6 20:53:25 10° SSE 20:57:26 38° E 21:01:27 10° NNE
Okean 3 4.2 20:53:16 10° SSW 20:57:30 60° W 21:01:44 10° N
Okean 1 Rocket 3.0 20:54:37 10° N 20:59:00 88° E 21:03:19 10° S
YAOGAN 6 3.6 20:57:13 10° S 21:00:49 49° W 21:04:25 10° NNW
Shenzhou-11 Module 2.2 20:57:57 10° WNW 21:00:55 66° N 21:03:53 10° E
Cosmos 1242 Rocket 2.9 21:02:00 10° N 21:05:32 47° ENE 21:09:02 10° SSE
Aureole 2 Rocket 4.1 21:06:22 10° NNE 21:08:10 15° ENE 21:09:55 10° E
CZ-4C R/B 4.5 21:04:39 10° NNW 21:09:55 22° NE 21:15:41 10° E
Thor Agena Rocket 4.2 21:05:18 10° N 21:10:31 63° WNW 21:15:39 10° SSW
BREEZE-M R/B 3.3 21:06:56 10° WSW 21:11:42 56° NNW 21:14:30 10° NE
Cosmos 2084 3.3 21:11:36 10° SSW 21:15:56 72° ESE 21:20:02 10° NE
Atlas Centaur 2 3.2 21:15:44 10° SW 21:17:34 13° SSW 21:19:19 10° SSE
Cosmos 2233 Rocket 4.0 21:14:11 10° S 21:20:19 86° E 21:26:34 10° N
Cosmos 1975 3.1 21:17:51 10° NNW 21:21:53 71° W 21:25:52 10° S
SL-08 RB Rocket 4.4 21:20:48 13° SE 21:24:22 38° ENE 21:28:36 10° N
SJ 16-02 3.1 21:22:27 10° NNE 21:25:36 19° ENE 21:28:17 12° E
Meteor 1-19 Rocket 4.3 21:21:50 10° S 21:27:43 78° E 21:33:39 10° NNE
Resurs 01 Rocket 2.7 21:23:40 10° S 21:27:51 43° W 21:32:03 10° NNW
Cosmos 2360 Rocket 3.0 21:22:55 10° N 21:28:08 37° ENE 21:32:17 15° ESE
Spot 2 Rocket 3.9 21:23:41 10° S 21:28:40 64° WSW 21:33:41 10° NNW
Cosmos 1980 Rocket 3.9 21:25:49 10° NW 21:30:37 29° WSW 21:35:26 10° SSW
Cosmos 540 Rocket 4.4 21:27:11 12° SSE 21:31:08 29° E 21:35:33 10° NE
Cosmos 2219 Rocket 4.3 21:28:50 10° NNE 21:31:32 14° NE 21:34:15 10° ENE
Cosmos 468 Rocket 4.4 21:27:30 10° SSW 21:32:45 67° WNW 21:37:58 10° NNE
ATLAS CENTAUR R/B 4.0 21:30:15 10° WNW 21:33:19 18° WSW 21:36:27 10° SSW
Cosmos 1937 Rocket 3.4 21:29:09 10° NNW 21:34:19 82° ENE 21:38:38 15° SSE
Cosmos 2298 Rocket 4.1 21:29:34 10° NNW 21:34:51 66° ENE 21:38:58 17° SSE
ERS-2 4.2 21:31:45 10° SSW 21:34:52 26° W 21:38:00 10° NW
BREEZE-M DEB (TANK) 3.1 21:33:02 10° W 21:35:06 19° SW 21:36:07 14° S
Cosmos 1666 3.3 21:31:21 10° NNW 21:35:10 56° W 21:38:57 10° S
Helios 1B rocket 4.1 21:34:25 10° NE 21:36:59 16° E 21:37:37 15° ESE
Cosmos 1763 Rocket 3.5 21:33:34 10° SSW 21:38:53 87° ESE 21:44:11 10° NNE
Meteor 2-9 Rocket 4.1 21:36:18 10° N 21:41:39 74° E 21:46:09 15° SSE
Cosmos 841 Rocket 3.5 21:39:16 10° S 21:44:27 68° ESE 21:49:42 10° NNE
USA 32 4.0 21:41:50 10° N 21:47:05 70° E 21:51:09 17° SSE
Cosmos 1743 3.8 21:44:03 10° NNW 21:47:41 42° W 21:51:16 10° SSW
MetOp-A 4.1 21:44:35 15° SSE 21:49:07 88° ENE 21:54:31 10° NNW
SPOT 5 3.5 21:49:27 21° ESE 21:51:41 35° ENE 21:55:50 10° N
Meteor 1-23 Rocket 4.4 21:48:45 16° SSE 21:53:06 51° E 21:58:29 10° NNE
Iridium 2 4.3 21:50:05 10° SSW 21:53:51 58° W 21:57:38 10° N
Cosmos 2333 Rocket 4.1 21:50:05 10° N 21:53:53 18° NE 21:57:38 10° E
USA 234 3.5 21:49:55 10° NE 21:56:28 77° NW 22:03:01 10° WSW
Terra 3.4 21:55:07 17° E 21:57:11 22° ENE 22:00:47 10° NNE
COSMOS 2428 4.0 21:52:31 10° N 21:57:20 28° NE 22:00:36 17° ESE
Centaur D-1A AC-31 3.2 21:58:24 10° SW 22:00:04 12° SSW 22:00:42 11° SSW
Cosmos 1513 Rocket 4.4 21:59:23 13° S 22:04:48 74° E 22:10:58 10° N
Cosmos 1833 4.1 21:59:12 10° SSW 22:04:56 80° ESE 22:10:39 10° NNE
Meteor 2-4 Rocket 3.9 21:59:57 10° SSW 22:05:21 73° W 22:10:58 10° N
Lacrosse 5 rocket 1.9 22:01:12 10° NW 22:05:25 49° NE 22:07:25 26° ESE
Cosmos 2034 Rocket 4.0 22:03:34 18° S 22:08:06 63° E 22:14:11 10° NNE
ERS-1 Rocket 2.9 22:07:45 24° SSE 22:10:52 88° WSW 22:15:55 10° NNW
Cosmos 1464 Rocket 4.0 22:05:15 10° S 22:11:37 89° W 22:18:03 10° N
Abrixas rocket 4.1 22:11:07 10° W 22:14:02 30° NNW 22:16:56 10° NE
ISS -0.7 22:13:13 10° NW 22:15:26 17° NNW 22:17:39 10° NNE
Cosmos 1025 Rocket 3.7 22:14:39 33° ESE 22:15:36 37° E 22:19:38 10° NNE
USA 245 3.2 22:16:24 37° S 22:17:44 79° WSW 22:22:04 10° NNW
Cosmos 1515 3.8 22:17:00 25° SSW 22:19:09 76° W 22:23:00 10° N
Cosmos 1356 3.9 22:17:03 21° SSW 22:19:10 58° WNW 22:22:36 10° N
SPOT 1/Viking Rocket 3.6 22:16:50 31° SSE 22:19:20 67° ENE 22:24:28 10° N
ARGOS 3.9 22:15:18 15° S 22:19:36 49° W 22:24:51 10° NNW
Cosmos 2227 Rocket 4.3 22:21:07 10° E 22:21:07 10° E 22:21:33 10° E
Cosmos 2322 3.8 22:15:16 10° NNW 22:21:00 71° ENE 22:23:44 32° SE
Cosmos 2322 Rocket 3.4 22:17:14 10° NW 22:22:17 35° WSW 22:26:19 15° SSW
H-2A R/B 2.5 22:19:42 20° S 22:22:58 54° W 22:27:55 10° NNW
Tiangong 2 1.4 22:21:10 10° W 22:24:18 63° N 22:25:10 41° ENE
Cosmos 1455 Rocket 3.9 22:20:18 10° NNW 22:24:28 45° W 22:27:13 20° SSW
Cosmos 2237 Rocket 4.2 22:22:14 10° N 22:26:02 18° NE 22:29:13 12° E
CENTAUR R/B 2.9 22:20:19 10° SW 22:26:14 67° NW 22:33:08 10° NNE
Cosmos 1340 Rocket 4.1 22:25:18 10° SW 22:29:06 39° WNW 22:32:58 10° N
SL-16 R/B 3.8 22:26:54 10° NW 22:31:38 28° WSW 22:35:43 13° SSW
Cosmos 1125 Rocket 3.5 22:26:32 10° NNW 22:31:47 67° ENE 22:33:42 38° SE
Meteor 1-29 3.5 22:28:27 10° NNE 22:31:30 43° E 22:31:30 43° E
Cosmos 1066 Rocket 4.4 22:30:19 36° SE 22:32:02 49° E 22:37:16 10° NNE
Shenzhou-11 Module 3.2 22:34:04 10° W 22:36:03 33° WSW 22:36:03 33° WSW
DMSP B5D2-2 4.3 22:34:31 10° N 22:39:48 72° WNW 22:43:34 19° SSW
Aureole 2 Rocket 4.2 22:40:50 10° NW 22:42:52 18° W 22:43:07 18° WSW
Helios 1A 3.3 22:41:57 39° SSW 22:43:13 58° WSW 22:47:21 10° NNW
Cosmos 2219 3.4 22:48:54 42° SSE 22:50:19 52° ESE 22:55:53 10° NNE
Cosmos 2237 4.3 22:45:08 10° NNW 22:50:50 69° WSW 22:52:57 39° S
Okean 2 3.7 22:50:55 40° SW 22:52:14 63° W 22:56:23 10° N
Cosmos 1766 4.3 22:51:54 10° NNE 22:55:20 33° ENE 22:55:20 33° ENE
Cosmos 1892 Rocket 4.4 22:57:18 34° ENE 22:57:18 34° ENE 23:00:51 10° NNE
Nimbus 7 Rocket 4.3 22:53:23 10° NNE 22:59:16 69° ESE 23:01:13 43° S
CZ-4C R/B 3.0 22:52:25 10° NNW 22:59:40 74° NE 23:03:19 35° SE
SJ 16-02 2.2 23:00:12 10° NNW 23:04:24 42° WSW 23:05:18 37° SW
Cosmos 1356 Rocket 3.9 23:03:26 43° SW 23:04:35 59° WNW 23:08:51 10° N
Cosmos 1544 3.2 23:01:49 10° N 23:05:13 71° NNE 23:05:13 71° NNE
Okean 1-7 Rocket 3.5 23:05:55 69° SSE 23:06:21 77° E 23:10:56 10° N
COSMOS 2455 3.8 23:07:46 29° E 23:07:46 29° E 23:12:17 10° NE
Cosmos 2360 Rocket 3.4 23:07:04 10° NW 23:12:00 32° WSW 23:14:04 25° SW
Helios 1B rocket 3.5 23:08:32 10° N 23:12:27 41° WNW 23:13:58 29° WSW
Cosmos 2228 3.6 23:09:03 10° N 23:12:59 43° ENE 23:12:59 43° ENE
CZ-2C R/B 2.8 23:08:20 10° NNE 23:13:54 60° E 23:14:47 53° SE
Cosmos 2333 4.2 23:08:57 10° NNW 23:14:36 71° WSW 23:15:58 51° S
Cosmos 2219 Rocket 2.1 23:10:49 10° NNW 23:16:26 79° ENE 23:17:36 57° SE
Cosmos 1726 Rocket 3.6 23:12:56 10° N 23:17:20 65° E 23:17:20 65° E
Cosmos 1092 Rocket 4.1 23:12:08 10° NNW 23:18:28 71° W 23:20:43 42° SSW
IGS 5A 4.2 23:21:30 41° WSW 23:21:49 42° W 23:25:47 10° NNW
SPOT 5 4.5 23:28:41 19° WSW 23:29:52 21° W 23:33:20 10° NW
Cosmos 1842 4.0 23:31:21 45° NE 23:31:21 45° NE 23:34:17 10° NNE
Cosmos 1805 3.9 23:27:49 10° N 23:31:01 51° NNE 23:31:01 51° NNE
Cosmos 2058 Rocket 3.2 23:27:14 10° N 23:31:33 64° ENE 23:31:33 64° ENE
Iridium 4 Rocket 4.1 23:33:13 46° ESE 23:33:48 47° E 23:39:24 10° NNE
Terra 2.6 23:33:59 38° WSW 23:34:39 41° W 23:39:09 10° NNW
Cosmos 2333 Rocket 2.1 23:33:06 10° NNW 23:38:50 78° WSW 23:39:38 65° S
COSMOS 2428 3.2 23:36:22 10° NW 23:41:45 45° WSW 23:42:36 42° SW
CZ-2C R/B 3.5 23:41:20 47° SW 23:42:17 53° W 23:47:46 10° NNW
SL-16 R/B 3.6 23:38:13 10° N 23:43:02 28° NE 23:44:52 23° E
Lacrosse 5 rocket 3.4 23:41:08 10° WNW 23:43:05 18° W 23:43:05 18° W
Cosmos 489 Rocket 4.5 23:38:01 10° NNW 23:44:25 78° ENE 23:45:42 58° SE
NOSS 0 Rocket 3.8 23:39:22 10° NNW 23:45:40 88° WSW 23:46:47 63° SSE
ALOS 2 3.9 23:46:19 30° ENE 23:46:19 30° ENE 23:49:59 10° N
Cosmos 2026 Rocket 4.1 23:41:55 10° NNW 23:48:01 66° W 23:49:21 51° SSW
SL-19 R/B 4.4 23:44:53 10° NNE 23:50:59 61° ESE 23:51:28 59° SE
Cosmos 2279 Rocket 3.9 23:50:11 57° SSW 23:51:33 83° W 23:57:48 10° N
Cosmos 1655 Rocket 3.9 23:45:27 10° N 23:51:52 87° E 23:53:03 62° SSE
ISS -0.7 23:51:01 10° NNW 23:52:54 14° N 23:54:47 10° NE
Cosmos 1980 3.5 23:47:14 10° NNW 23:52:56 82° ENE 23:53:29 72° SE
Cosmos 1953 3.6 23:49:15 10° N 23:52:04 34° NE 23:52:04 34° NE
